GW1200 Weather Reports


Display with metric or nautical units.
time (UTC)temp
F
wind
direction
speed
MPH
gust
MPH
rain 1hr
in
rain 24hr
in
rain mn
in
humidity
%
barometer
mb
20260831193446 92 18 3.0 3.0 0.00 0.00 0.00 71 4254.8
20260831192441 95 350 3.0 3.0 0.00 0.00 0.00 59 4254.9
20260831191438 94 10 4.0 5.0 0.00 0.00 0.00 63 4254.9
20260831190435 93 317 2.0 2.0 0.00 0.00 0.00 64 4255.1
20260831185430 93 358 3.0 5.0 0.00 0.00 0.00 68 4255.0
20260831184430 93 10 4.0 5.0 0.00 0.00 0.00 67 4255.3
20260831183425 93 2 5.0 5.0 0.00 0.00 0.00 69 4255.5
20260831182420 92 18 3.0 3.0 0.00 0.00 0.00 69 4255.7
20260831181417 93 18 3.0 5.0 0.00 0.00 0.00 67 4255.7
20260831180417 92 17 3.0 3.0 0.00 0.00 0.00 71 4255.7
20260831175413 92 1 5.0 6.0 0.00 0.00 0.00 69 4255.9
20260831174410 91 5 3.0 3.0 0.00 0.00 0.00 71 4255.9
20260831173408 92 11 3.0 3.0 0.00 0.00 0.00 73 4256.1
20260831172406 91 7 3.0 3.0 0.00 0.00 0.00 73 4256.2
20260831171402 90 15 2.0 2.0 0.00 0.00 0.00 74 4256.3
20260831170400 91 14 2.0 2.0 0.00 0.00 0.00 75 4256.5
20260831165358 89 10 3.0 3.0 0.00 0.00 0.00 80 4256.6
20260831164356 90 59 1.0 2.0 0.00 0.00 0.00 77 4256.6
20260831163353 90 345 2.0 2.0 0.00 0.00 0.00 80 4256.7
20260831162353 88 79 0.0 1.0 0.00 0.00 0.00 78 4256.8
20260831161348 87 52 0.0 0.0 0.00 0.00 0.00 80 4256.8
20260831160343 86 9 1.0 1.0 0.00 0.00 0.00 83 4256.8
20260831155338 87 9 1.0 1.0 0.00 0.00 0.00 84 4256.8
20260831154336 88 17 3.0 5.0 0.00 0.00 0.00 81 4257.1
20260831153336 87 10 2.0 3.0 0.00 0.00 0.00 83 4256.9
20260831152334 86 8 2.0 2.0 0.00 0.00 0.00 84 4257.1
20260831151333 86 2 3.0 3.0 0.00 0.00 0.00 84 4256.9
20260831150330 84 12 3.0 3.0 0.00 0.00 0.00 86 4257.0
20260831145326 84 14 2.0 2.0 0.00 0.00 0.00 86 4256.8
20260831144322 83 12 2.0 2.0 0.00 0.00 0.00 87 4256.8
20260831143318 83 12 1.0 2.0 0.00 0.00 0.00 87 4256.9
20260831142314 82 13 3.0 3.0 0.00 0.00 0.00 89 4256.8
20260831141314 81 13 2.0 3.0 0.00 0.00 0.00 90 4256.8
20260831140309 81 37 1.0 2.0 0.00 0.00 0.00 92 4256.9
20260831135309 80 8 1.0 1.0 0.00 0.00 0.00 92 4256.8
20260831134307 79 9 3.0 3.0 0.00 0.00 0.00 94 4256.8
20260831133306 79 18 1.0 2.0 0.00 0.00 0.00 94 4256.8
20260831132306 78 11 1.0 2.0 0.00 0.00 0.00 94 4256.7
20260831131259 77 135 0.0 0.0 0.00 0.00 0.00 95 4256.7
20260831130254 77 231 0.0 1.0 0.00 0.00 0.00 95 4256.4
20260831125249 76 222 0.0 0.0 0.00 0.00 0.00 96 4256.5
20260831124246 75 237 1.0 1.0 0.00 0.00 0.00 98 4256.5
20260831123245 74 231 0.0 1.0 0.00 0.00 0.00 98 4256.5
20260831122241 73 243 1.0 1.0 0.00 0.00 0.00 99 4256.2
20260831121237 73 220 1.0 1.0 0.00 0.00 0.00 99 4256.1
20260831120232 73 225 1.0 1.0 0.00 0.00 0.00 99 4256.0
20260831115230 72 226 1.0 2.0 0.00 0.00 0.00 99 4256.1
20260831114229 72 227 1.0 1.0 0.00 0.00 0.00 99 4255.7
20260831113224 72 222 1.0 1.0 0.00 0.00 0.00 99 4255.5
20260831112219 72 219 1.0 1.0 0.00 0.00 0.00 99 4255.5
20260831111217 73 207 0.0 0.0 0.00 0.00 0.00 99 4255.4
20260831110213 72 236 1.0 1.0 0.00 0.00 0.00 99 4255.4
20260831105208 72 218 1.0 1.0 0.00 0.00 0.00 99 4255.5
20260831104205 72 218 1.0 1.0 0.00 0.00 0.00 99 4255.1
20260831103200 72 231 1.0 2.0 0.00 0.00 0.00 99 4255.1
20260831102200 72 218 1.0 1.0 0.00 0.00 0.00 99 4255.1
20260831101158 72 218 1.0 1.0 0.00 0.00 0.00 99 4255.0
20260831100155 72 214 0.0 1.0 0.00 0.00 0.00 99 4254.9
20260831095155 73 262 0.0 0.0 0.00 0.00 0.00 99 4255.0
20260831094151 73 235 1.0 1.0 0.00 0.00 0.00 99 4254.8
20260831093148 73 222 1.0 1.0 0.00 0.00 0.00 99 4254.8
20260831092146 73 221 1.0 1.0 0.00 0.00 0.00 99 4254.7
20260831091141 72 216 1.0 1.0 0.00 0.00 0.00 99 4254.5
20260831090138 72 217 1.0 1.0 0.00 0.00 0.00 99 4254.8
20260831085134 72 209 0.0 1.0 0.00 0.00 0.00 99 4254.7
20260831084132 73 204 1.0 1.0 0.00 0.00 0.00 99 4254.5
20260831083128 73 208 1.0 1.0 0.00 0.00 0.00 99 4254.6
20260831082128 72 217 1.0 1.0 0.00 0.00 0.00 99 4254.5
20260831081125 72 217 1.0 1.0 0.00 0.00 0.00 99 4254.5
20260831080121 72 213 1.0 1.0 0.00 0.00 0.00 99 4254.6
20260831075118 72 215 1.0 1.0 0.00 0.00 0.00 99 4254.4
20260831074118 72 214 1.0 1.0 0.00 0.00 0.00 99 4254.5
20260831073118 73 213 1.0 1.0 0.00 0.00 0.00 99 4254.4
20260831072116 73 218 1.0 1.0 0.00 0.00 0.00 99 4254.4
20260831071115 72 215 1.0 1.0 0.00 0.00 0.00 99 4254.3
20260831070115 73 218 1.0 1.0 0.00 0.00 0.00 99 4254.5
20260831065114 73 213 1.0 1.0 0.00 0.00 0.00 99 4254.4
20260831064109 73 214 0.0 1.0 0.00 0.00 0.00 99 4254.7
20260831063106 73 215 1.0 1.0 0.00 0.00 0.00 99 4254.7
20260831062106 74 211 1.0 1.0 0.00 0.00 0.00 99 4254.6
20260831061106 74 213 1.0 1.0 0.00 0.00 0.00 98 4254.6
20260831055058 74 218 1.0 1.0 0.00 0.00 0.00 99 4254.6
20260831054056 74 218 1.0 1.0 0.00 0.00 0.00 99 4254.8
20260831053056 74 216 0.0 0.0 0.00 0.00 0.00 99 4254.8
20260831052055 74 217 1.0 1.0 0.00 0.00 0.00 98 4254.6
20260831051053 75 210 0.0 0.0 0.00 0.00 0.00 97 4254.7
20260831050051 76 213 0.0 0.0 0.00 0.00 0.00 97 4254.5
20260831045046 76 213 0.0 0.0 0.00 0.00 0.00 98 4254.6
20260831044042 76 213 0.0 0.0 0.00 0.00 0.00 95 4254.6
20260831043038 77 213 0.0 1.0 0.00 0.00 0.00 93 4254.7
20260831042038 76 214 0.0 0.0 0.00 0.00 0.00 93 4254.6
20260831041038 76 218 1.0 1.0 0.00 0.00 0.00 95 4254.7
20260831040033 77 212 1.0 2.0 0.00 0.00 0.00 94 4254.6
20260831035032 77 216 1.0 1.0 0.00 0.00 0.00 94 4254.8
20260831034027 77 213 0.0 0.0 0.00 0.00 0.00 91 4254.7
20260831033024 78 220 1.0 1.0 0.00 0.00 0.00 92 4254.7
20260831032019 78 207 0.0 1.0 0.00 0.00 0.00 90 4254.7
20260831031018 78 207 1.0 1.0 0.00 0.00 0.00 90 4254.7
20260831030017 78 209 1.0 1.0 0.00 0.00 0.00 89 4254.8
20260831025016 79 211 1.0 1.0 0.00 0.00 0.00 89 4254.7
20260831024012 79 211 1.0 1.0 0.00 0.00 0.00 88 4255.1
20260831023010 80 213 1.0 1.0 0.00 0.00 0.00 87 4254.9
20260831022005 80 214 1.0 1.0 0.00 0.00 0.00 86 4254.8
20260831021000 80 217 1.0 1.0 0.00 0.00 0.00 85 4254.5
20260831020000 80 226 1.0 1.0 0.00 0.00 0.00 86 4254.5
20260831014957 81 230 1.0 1.0 0.00 0.00 0.00 85 4254.1
20260831013953 81 222 1.0 1.0 0.00 0.00 0.00 85 4254.2
20260831012949 81 232 1.0 2.0 0.00 0.00 0.00 84 4253.8
20260831011950 82 225 1.0 1.0 0.00 0.00 0.00 84 4253.8
20260831010947 83 232 1.0 1.0 0.00 0.00 0.00 81 4253.8
20260831005942 83 229 2.0 2.0 0.00 0.00 0.00 81 4253.6
20260831004937 84 231 1.0 1.0 0.00 0.00 0.00 79 4253.7
20260831003935 84 226 0.0 1.0 0.00 0.00 0.00 77 4253.7
20260831002931 85 220 0.0 0.0 0.00 0.00 0.00 76 4253.6
20260831001931 86 228 1.0 1.0 0.00 0.00 0.00 74 4253.6
20260831000930 86 227 0.0 1.0 0.00 0.00 0.00 73 4253.6
20260830235929 87 224 1.0 1.0 0.00 0.00 0.00 71 4253.4
20260830234925 88 239 0.0 1.0 0.00 0.00 0.00 68 4253.6
20260830233922 89 229 1.0 1.0 0.00 0.00 0.00 67 4253.5
20260830232919 89 93 2.0 2.0 0.00 0.00 0.00 66 4253.9
20260830231917 90 329 0.0 0.0 0.00 0.00 0.00 66 4253.6
20260830230917 91 293 0.0 0.0 0.00 0.00 0.00 64 4253.8
20260830225917 92 237 3.0 3.0 0.00 0.00 0.00 63 4253.6
20260830224914 94 91 1.0 1.0 0.00 0.00 0.00 60 4253.8
20260830223909 94 248 1.0 2.0 0.00 0.00 0.00 60 4253.6
20260830222904 93 199 1.0 1.0 0.00 0.00 0.00 60 4253.7
20260830221901 93 91 1.0 1.0 0.00 0.00 0.00 60 4253.7
20260830220859 93 253 1.0 1.0 0.00 0.00 0.00 60 4253.6
20260830215856 94 76 0.0 1.0 0.00 0.00 0.00 60 4253.7
20260830214851 94 183 2.0 2.0 0.00 0.00 0.00 58 4253.6
20260830213846 95 345 2.0 2.0 0.00 0.00 0.00 58 4253.5
20260830212843 96 288 0.0 1.0 0.00 0.00 0.00 56 4253.7
20260830211838 95 218 1.0 1.0 0.00 0.00 0.00 57 4253.7
20260830210834 94 258 2.0 3.0 0.00 0.00 0.00 58 4253.5
20260830205831 91 235 1.0 1.0 0.00 0.00 0.00 61 4253.9
20260830204826 92 207 2.0 2.0 0.00 0.00 0.00 61 4253.8
20260830203821 92 10 1.0 2.0 0.00 0.00 0.00 60 4253.9
20260830202816 96 261 2.0 2.0 0.00 0.00 0.00 57 4254.1
20260830201812 95 243 1.0 2.0 0.00 0.00 0.00 58 4254.2
20260830200808 93 95 1.0 2.0 0.00 0.00 0.00 59 4254.1
20260830195803 93 121 3.0 3.0 0.00 0.00 0.00 63 4254.4
20260830194800 94 49 2.0 2.0 0.00 0.00 0.00 62 4254.5